| time (UTC) | temp C | wind direction | speed KPH | gust KPH | rain 1hr cm | rain 24hr cm | rain mn cm | humidity % | barometer mb |
| 20260510122706 | 22 | 270 | 0.0 | 0.0 | 0.00 | 0.00 | 0.00 | 99 | 1018.0 |
| 20260510122202 | 22 | 272 | 0.0 | 0.0 | 0.00 | 0.00 | 0.00 | 99 | 1017.9 |
| 20260510121653 | 21 | 272 | 0.0 | 0.0 | 0.00 | 0.00 | 0.00 | 99 | 1017.7 |
| 20260510121150 | 21 | 272 | 0.0 | 0.0 | 0.00 | 0.00 | 0.00 | 99 | 1017.7 |
| 20260510120648 | 21 | 272 | 0.0 | 0.0 | 0.00 | 0.00 | 0.00 | 99 | 1017.9 |
| 20260510120144 | 21 | 272 | 0.0 | 0.0 | 0.00 | 0.00 | 0.00 | 99 | 1017.8 |
| 20260510115640 | 21 | 272 | 0.0 | 0.0 | 0.00 | 0.00 | 0.00 | 99 | 1017.5 |
| 20260510115138 | 21 | 272 | 0.0 | 0.0 | 0.00 | 0.00 | 0.00 | 99 | 1017.5 |
| 20260510114633 | 21 | 274 | 0.0 | 0.0 | 0.00 | 0.00 | 0.00 | 99 | 1017.7 |
| 20260510114130 | 21 | 274 | 0.0 | 0.0 | 0.00 | 0.00 | 0.00 | 99 | 1017.7 |
| 20260510113625 | 21 | 274 | 0.0 | 0.0 | 0.00 | 0.00 | 0.00 | 99 | 1017.5 |
| 20260510113123 | 21 | 274 | 0.0 | 0.0 | 0.00 | 0.00 | 0.00 | 99 | 1017.4 |
| 20260510112619 | 21 | 274 | 0.0 | 0.0 | 0.00 | 0.00 | 0.00 | 99 | 1017.4 |
| 20260510112115 | 21 | 274 | 0.0 | 0.0 | 0.00 | 0.00 | 0.00 | 99 | 1017.1 |
| 20260510111612 | 21 | 274 | 0.0 | 0.0 | 0.00 | 0.00 | 0.00 | 99 | 1017.3 |
| 20260510111108 | 21 | 270 | 0.0 | 0.0 | 0.00 | 0.00 | 0.00 | 99 | 1016.9 |
| 20260510110604 | 21 | 269 | 0.0 | 0.0 | 0.00 | 0.00 | 0.00 | 99 | 1016.9 |
| 20260510105556 | 21 | 269 | 0.0 | 0.0 | 0.00 | 0.00 | 0.00 | 99 | 1016.7 |
| 20260510105045 | 21 | 250 | 3.2 | 3.2 | 0.00 | 0.00 | 0.00 | 99 | 1016.6 |
| 20260510104542 | 21 | 273 | 0.0 | 0.0 | 0.00 | 0.00 | 0.00 | 99 | 1017.0 |
| 20260510104039 | 21 | 273 | 0.0 | 0.0 | 0.00 | 0.00 | 0.00 | 99 | 1016.8 |
| 20260510103536 | 21 | 273 | 0.0 | 0.0 | 0.00 | 0.00 | 0.00 | 99 | 1016.8 |
| 20260510103032 | 21 | 273 | 0.0 | 0.0 | 0.00 | 0.00 | 0.00 | 99 | 1016.3 |
| 20260510102528 | 21 | 273 | 0.0 | 0.0 | 0.00 | 0.00 | 0.00 | 99 | 1016.7 |
| 20260510102024 | 21 | 274 | 0.0 | 0.0 | 0.00 | 0.00 | 0.00 | 99 | 1016.6 |
| 20260510101522 | 21 | 274 | 0.0 | 0.0 | 0.00 | 0.00 | 0.00 | 99 | 1016.4 |
| 20260510101021 | 21 | 274 | 0.0 | 0.0 | 0.00 | 0.00 | 0.00 | 99 | 1016.6 |
| 20260510100516 | 21 | 269 | 0.0 | 0.0 | 0.00 | 0.00 | 0.00 | 99 | 1016.6 |
| 20260510100013 | 21 | 269 | 0.0 | 0.0 | 0.00 | 0.00 | 0.00 | 99 | 1016.4 |
| 20260510095509 | 21 | 270 | 0.0 | 0.0 | 0.00 | 0.00 | 0.00 | 99 | 1016.4 |
| 20260510095008 | 21 | 270 | 0.0 | 0.0 | 0.00 | 0.00 | 0.00 | 99 | 1016.1 |
| 20260510094503 | 21 | 270 | 0.0 | 0.0 | 0.00 | 0.00 | 0.00 | 99 | 1016.3 |
| 20260510093959 | 21 | 271 | 0.0 | 0.0 | 0.00 | 0.00 | 0.00 | 99 | 1016.3 |
| 20260510093455 | 21 | 271 | 0.0 | 0.0 | 0.00 | 0.00 | 0.00 | 99 | 1016.3 |
| 20260510092951 | 21 | 270 | 0.0 | 0.0 | 0.00 | 0.00 | 0.00 | 99 | 1016.2 |
| 20260510092449 | 21 | 270 | 0.0 | 0.0 | 0.00 | 0.00 | 0.00 | 99 | 1015.8 |
| 20260510091949 | 21 | 270 | 0.0 | 0.0 | 0.00 | 0.00 | 0.00 | 99 | 1015.9 |
| 20260510091446 | 21 | 270 | 0.0 | 0.0 | 0.00 | 0.00 | 0.00 | 99 | 1016.0 |
| 20260510090942 | 21 | 270 | 0.0 | 0.0 | 0.00 | 0.00 | 0.00 | 99 | 1015.9 |
| 20260510090439 | 21 | 270 | 0.0 | 0.0 | 0.00 | 0.00 | 0.00 | 99 | 1015.8 |
| 20260510085934 | 21 | 270 | 0.0 | 0.0 | 0.00 | 0.00 | 0.00 | 99 | 1015.8 |
| 20260510085430 | 21 | 270 | 0.0 | 0.0 | 0.00 | 0.00 | 0.00 | 99 | 1015.8 |
| 20260510084925 | 21 | 270 | 0.0 | 0.0 | 0.00 | 0.00 | 0.00 | 99 | 1015.5 |
| 20260510084423 | 21 | 270 | 0.0 | 0.0 | 0.00 | 0.00 | 0.00 | 99 | 1015.6 |
| 20260510083920 | 21 | 270 | 0.0 | 0.0 | 0.00 | 0.00 | 0.00 | 99 | 1015.5 |
| 20260510083416 | 21 | 270 | 0.0 | 0.0 | 0.00 | 0.00 | 0.00 | 99 | 1015.5 |
| 20260510082911 | 21 | 270 | 0.0 | 0.0 | 0.00 | 0.00 | 0.00 | 99 | 1015.6 |
| 20260510082409 | 21 | 270 | 0.0 | 0.0 | 0.00 | 0.00 | 0.00 | 99 | 1015.5 |
| 20260510081907 | 21 | 270 | 0.0 | 0.0 | 0.00 | 0.00 | 0.00 | 99 | 1015.3 |
| 20260510081403 | 21 | 270 | 0.0 | 0.0 | 0.00 | 0.00 | 0.00 | 99 | 1015.3 |
| 20260510080901 | 21 | 270 | 0.0 | 0.0 | 0.00 | 0.00 | 0.00 | 99 | 1015.4 |
| 20260510080354 | 21 | 270 | 0.0 | 0.0 | 0.00 | 0.00 | 0.00 | 99 | 1015.7 |
| 20260510075852 | 21 | 270 | 0.0 | 0.0 | 0.00 | 0.00 | 0.00 | 99 | 1015.6 |
| 20260510075349 | 21 | 270 | 0.0 | 0.0 | 0.00 | 0.00 | 0.00 | 99 | 1015.7 |
| 20260510074845 | 21 | 270 | 0.0 | 0.0 | 0.00 | 0.00 | 0.00 | 99 | 1015.5 |
| 20260510074343 | 21 | 270 | 0.0 | 0.0 | 0.00 | 0.00 | 0.00 | 99 | 1015.6 |
| 20260510073839 | 21 | 270 | 0.0 | 0.0 | 0.00 | 0.00 | 0.00 | 99 | 1015.5 |
| 20260510073335 | 21 | 270 | 0.0 | 0.0 | 0.00 | 0.00 | 0.00 | 99 | 1015.4 |
| 20260510072831 | 21 | 270 | 0.0 | 0.0 | 0.00 | 0.00 | 0.00 | 99 | 1015.3 |
| 20260510072328 | 21 | 270 | 0.0 | 0.0 | 0.00 | 0.00 | 0.00 | 99 | 1015.3 |
| 20260510071824 | 21 | 270 | 0.0 | 0.0 | 0.00 | 0.00 | 0.00 | 98 | 1015.3 |
| 20260510071320 | 21 | 270 | 0.0 | 0.0 | 0.00 | 0.00 | 0.00 | 98 | 1015.3 |
| 20260510070820 | 21 | 270 | 0.0 | 0.0 | 0.00 | 0.00 | 0.00 | 99 | 1015.2 |
| 20260510070311 | 21 | 270 | 0.0 | 0.0 | 0.00 | 0.00 | 0.00 | 99 | 1015.4 |
| 20260510065810 | 21 | 270 | 0.0 | 0.0 | 0.00 | 0.00 | 0.00 | 99 | 1015.3 |
| 20260510065308 | 21 | 270 | 0.0 | 0.0 | 0.00 | 0.00 | 0.00 | 98 | 1015.3 |
| 20260510064804 | 21 | 270 | 0.0 | 0.0 | 0.00 | 0.00 | 0.00 | 99 | 1015.5 |
| 20260510064302 | 21 | 270 | 0.0 | 0.0 | 0.00 | 0.00 | 0.00 | 99 | 1015.5 |
| 20260510063757 | 21 | 270 | 0.0 | 0.0 | 0.00 | 0.00 | 0.00 | 99 | 1015.3 |
| 20260510063254 | 21 | 270 | 0.0 | 0.0 | 0.00 | 0.00 | 0.00 | 98 | 1015.6 |
| 20260510062750 | 21 | 270 | 0.0 | 0.0 | 0.00 | 0.00 | 0.00 | 98 | 1015.7 |
| 20260510062246 | 21 | 270 | 0.0 | 0.0 | 0.00 | 0.00 | 0.00 | 98 | 1015.6 |
| 20260510061742 | 21 | 270 | 0.0 | 0.0 | 0.00 | 0.00 | 0.00 | 98 | 1015.7 |
| 20260510061239 | 21 | 270 | 0.0 | 0.0 | 0.00 | 0.00 | 0.00 | 98 | 1015.7 |
| 20260510060735 | 21 | 270 | 0.0 | 0.0 | 0.00 | 0.00 | 0.00 | 98 | 1015.8 |
| 20260510060232 | 21 | 270 | 0.0 | 0.0 | 0.00 | 0.00 | 0.00 | 98 | 1015.7 |
| 20260510055729 | 21 | 270 | 0.0 | 0.0 | 0.00 | 0.00 | 0.00 | 98 | 1015.9 |
| 20260510055227 | 21 | 270 | 0.0 | 0.0 | 0.00 | 0.00 | 0.00 | 98 | 1016.1 |
| 20260510054721 | 21 | 270 | 0.0 | 0.0 | 0.00 | 0.00 | 0.00 | 98 | 1016.1 |
| 20260510054218 | 21 | 270 | 0.0 | 0.0 | 0.00 | 0.00 | 0.00 | 98 | 1016.2 |
| 20260510053717 | 21 | 270 | 0.0 | 0.0 | 0.00 | 0.00 | 0.00 | 98 | 1016.2 |
| 20260510053214 | 21 | 270 | 0.0 | 0.0 | 0.00 | 0.00 | 0.00 | 98 | 1016.3 |
| 20260510052710 | 21 | 270 | 0.0 | 0.0 | 0.00 | 0.00 | 0.00 | 98 | 1016.3 |
| 20260510052206 | 21 | 270 | 0.0 | 0.0 | 0.00 | 0.00 | 0.00 | 98 | 1016.5 |
| 20260510051702 | 21 | 270 | 0.0 | 0.0 | 0.00 | 0.00 | 0.00 | 98 | 1016.5 |
| 20260510051158 | 21 | 270 | 0.0 | 0.0 | 0.00 | 0.00 | 0.00 | 98 | 1016.6 |
| 20260510050656 | 21 | 270 | 0.0 | 0.0 | 0.00 | 0.00 | 0.00 | 98 | 1016.7 |
| 20260510050153 | 21 | 269 | 0.0 | 0.0 | 0.00 | 0.00 | 0.00 | 98 | 1017.1 |
| 20260510045649 | 21 | 267 | 0.0 | 0.0 | 0.00 | 0.00 | 0.00 | 98 | 1017.0 |
| 20260510045146 | 21 | 267 | 0.0 | 0.0 | 0.00 | 0.00 | 0.00 | 98 | 1016.8 |
| 20260510044642 | 21 | 269 | 0.0 | 0.0 | 0.00 | 0.00 | 0.00 | 98 | 1017.0 |
| 20260510044140 | 21 | 270 | 0.0 | 0.0 | 0.00 | 0.00 | 0.00 | 98 | 1016.9 |
| 20260510043635 | 21 | 267 | 0.0 | 0.0 | 0.00 | 0.00 | 0.00 | 98 | 1016.9 |
| 20260510043132 | 21 | 267 | 0.0 | 0.0 | 0.00 | 0.00 | 0.00 | 98 | 1016.9 |
| 20260510042630 | 21 | 267 | 0.0 | 0.0 | 0.00 | 0.00 | 0.00 | 98 | 1017.0 |
| 20260510042125 | 21 | 267 | 0.0 | 0.0 | 0.00 | 0.00 | 0.00 | 98 | 1016.9 |
| 20260510041623 | 21 | 267 | 0.0 | 0.0 | 0.00 | 0.00 | 0.00 | 98 | 1016.9 |
| 20260510041120 | 21 | 267 | 0.0 | 0.0 | 0.00 | 0.00 | 0.00 | 98 | 1016.9 |
| 20260510040617 | 21 | 267 | 0.0 | 0.0 | 0.00 | 0.00 | 0.00 | 98 | 1016.8 |
| 20260510040114 | 21 | 267 | 0.0 | 0.0 | 0.00 | 0.00 | 0.00 | 98 | 1017.0 |
| 20260510035609 | 21 | 267 | 0.0 | 0.0 | 0.00 | 0.69 | 0.69 | 98 | 1017.0 |
| 20260510035104 | 21 | 267 | 0.0 | 0.0 | 0.00 | 0.69 | 0.69 | 98 | 1016.8 |
| 20260510034602 | 21 | 269 | 0.0 | 0.0 | 0.00 | 0.69 | 0.69 | 98 | 1016.9 |
| 20260510034059 | 21 | 270 | 0.0 | 0.0 | 0.00 | 0.69 | 0.69 | 98 | 1016.9 |
| 20260510033555 | 21 | 270 | 0.0 | 0.0 | 0.00 | 0.69 | 0.69 | 98 | 1016.9 |
| 20260510033053 | 21 | 267 | 0.0 | 0.0 | 0.00 | 0.69 | 0.69 | 98 | 1017.1 |
| 20260510032549 | 21 | 267 | 0.0 | 0.0 | 0.00 | 0.69 | 0.69 | 98 | 1017.0 |
| 20260510032044 | 21 | 266 | 0.0 | 0.0 | 0.00 | 0.69 | 0.69 | 98 | 1017.3 |
| 20260510031544 | 21 | 267 | 0.0 | 0.0 | 0.00 | 0.69 | 0.69 | 98 | 1017.0 |
| 20260510031040 | 21 | 266 | 0.0 | 0.0 | 0.00 | 0.69 | 0.69 | 98 | 1017.1 |
| 20260510030536 | 21 | 266 | 0.0 | 0.0 | 0.00 | 0.69 | 0.69 | 98 | 1017.0 |
| 20260510030034 | 21 | 268 | 0.0 | 0.0 | 0.00 | 0.69 | 0.69 | 98 | 1017.0 |
| 20260510025531 | 21 | 270 | 0.0 | 0.0 | 0.00 | 0.69 | 0.69 | 98 | 1016.9 |
| 20260510025028 | 21 | 269 | 0.0 | 0.0 | 0.00 | 0.69 | 0.69 | 98 | 1016.7 |
| 20260510024525 | 21 | 269 | 0.0 | 0.0 | 0.00 | 0.69 | 0.69 | 98 | 1017.0 |
| 20260510024021 | 21 | 270 | 0.0 | 0.0 | 0.00 | 0.69 | 0.69 | 98 | 1016.4 |
| 20260510023517 | 21 | 268 | 0.0 | 0.0 | 0.00 | 0.69 | 0.69 | 98 | 1016.6 |
| 20260510023015 | 21 | 268 | 0.0 | 0.0 | 0.00 | 0.69 | 0.69 | 98 | 1016.4 |
| 20260510022514 | 21 | 268 | 0.0 | 0.0 | 0.00 | 0.69 | 0.69 | 98 | 1016.3 |
| 20260510022013 | 21 | 266 | 0.0 | 0.0 | 0.00 | 0.69 | 0.69 | 98 | 1016.5 |
| 20260510021510 | 21 | 269 | 0.0 | 0.0 | 0.00 | 0.69 | 0.69 | 98 | 1016.1 |
| 20260510021008 | 21 | 269 | 0.0 | 0.0 | 0.00 | 0.69 | 0.69 | 98 | 1016.2 |
| 20260510020503 | 21 | 269 | 0.0 | 0.0 | 0.00 | 0.69 | 0.69 | 98 | 1016.1 |
| 20260510015958 | 21 | 268 | 0.0 | 0.0 | 0.00 | 0.69 | 0.69 | 98 | 1016.1 |
| 20260510015454 | 21 | 268 | 0.0 | 0.0 | 0.00 | 0.69 | 0.69 | 98 | 1016.0 |
| 20260510014949 | 21 | 273 | 0.0 | 0.0 | 0.00 | 0.69 | 0.69 | 98 | 1015.8 |
| 20260510014448 | 21 | 273 | 0.0 | 0.0 | 0.00 | 0.69 | 0.69 | 98 | 1015.7 |
| 20260510013944 | 21 | 273 | 0.0 | 0.0 | 0.00 | 0.69 | 0.69 | 98 | 1015.7 |
| 20260510013438 | 21 | 273 | 0.0 | 0.0 | 0.00 | 0.69 | 0.69 | 98 | 1015.7 |
| 20260510012934 | 21 | 273 | 0.0 | 0.0 | 0.00 | 0.69 | 0.69 | 98 | 1015.7 |
| 20260510012430 | 21 | 273 | 0.0 | 0.0 | 0.00 | 0.69 | 0.69 | 98 | 1015.8 |
| 20260510011925 | 21 | 273 | 0.0 | 0.0 | 0.00 | 0.69 | 0.69 | 98 | 1015.6 |
| 20260510011419 | 21 | 274 | 0.0 | 0.0 | 0.00 | 0.69 | 0.69 | 98 | 1015.5 |
| 20260510010916 | 21 | 274 | 0.0 | 0.0 | 0.00 | 0.69 | 0.69 | 98 | 1015.8 |
| 20260510010414 | 21 | 274 | 0.0 | 0.0 | 0.00 | 0.69 | 0.69 | 98 | 1015.6 |
| 20260510005910 | 21 | 274 | 0.0 | 0.0 | 0.00 | 0.69 | 0.69 | 98 | 1015.8 |
| 20260510005406 | 21 | 274 | 0.0 | 0.0 | 0.00 | 0.69 | 0.69 | 98 | 1015.6 |
| 20260510004904 | 21 | 274 | 0.0 | 0.0 | 0.00 | 0.69 | 0.69 | 98 | 1015.9 |
| 20260510004402 | 21 | 274 | 0.0 | 0.0 | 0.00 | 0.69 | 0.69 | 98 | 1015.6 |
| 20260510003859 | 21 | 274 | 0.0 | 0.0 | 0.00 | 0.69 | 0.69 | 98 | 1015.7 |
| 20260510003355 | 21 | 274 | 0.0 | 0.0 | 0.00 | 0.69 | 0.69 | 97 | 1015.9 |
| 20260510002854 | 21 | 269 | 0.0 | 0.0 | 0.00 | 0.69 | 0.69 | 98 | 1015.9 |
| 20260510002352 | 21 | 271 | 0.0 | 0.0 | 0.00 | 0.69 | 0.69 | 97 | 1015.9 |
| 20260510001848 | 21 | 271 | 0.0 | 0.0 | 0.18 | 0.69 | 0.69 | 97 | 1015.9 |
| 20260510001346 | 21 | 269 | 0.0 | 0.0 | 0.18 | 0.69 | 0.69 | 97 | 1016.1 |
| 20260510000842 | 21 | 270 | 0.0 | 0.0 | 0.00 | 0.66 | 0.66 | 97 | 1016.1 |
| 20260510000341 | 21 | 270 | 0.0 | 0.0 | 0.00 | 0.66 | 0.66 | 97 | 1015.8 |
| 20260509235836 | 21 | 269 | 0.0 | 0.0 | 0.00 | 0.66 | 0.66 | 97 | 1016.1 |
| 20260509235333 | 21 | 269 | 0.0 | 0.0 | 0.00 | 0.66 | 0.66 | 97 | 1016.3 |
| 20260509234829 | 21 | 274 | 0.0 | 0.0 | 0.13 | 0.66 | 0.66 | 97 | 1016.3 |
| 20260509234326 | 21 | 274 | 0.0 | 0.0 | 0.13 | 0.66 | 0.66 | 97 | 1016.0 |
| 20260509233824 | 21 | 274 | 0.0 | 0.0 | 0.00 | 0.64 | 0.64 | 97 | 1015.9 |
| 20260509233322 | 21 | 274 | 0.0 | 0.0 | 0.00 | 0.64 | 0.64 | 97 | 1015.9 |
| 20260509232817 | 21 | 274 | 0.0 | 0.0 | 0.00 | 0.64 | 0.64 | 97 | 1015.9 |
| 20260509232315 | 21 | 274 | 0.0 | 0.0 | 0.00 | 0.64 | 0.64 | 97 | 1016.0 |
| 20260509231811 | 21 | 274 | 0.0 | 0.0 | 0.00 | 0.64 | 0.64 | 97 | 1016.0 |
| 20260509231308 | 21 | 274 | 0.0 | 0.0 | 0.00 | 0.64 | 0.64 | 97 | 1016.1 |
| 20260509230806 | 21 | 273 | 0.0 | 0.0 | 0.00 | 0.64 | 0.64 | 96 | 1015.9 |
| 20260509230302 | 21 | 333 | 0.0 | 0.0 | 0.00 | 0.64 | 0.64 | 96 | 1016.0 |
| 20260509225757 | 21 | 270 | 0.0 | 0.0 | 0.00 | 0.64 | 0.64 | 96 | 1015.7 |
| 20260509225254 | 21 | 270 | 0.0 | 0.0 | 0.00 | 0.64 | 0.64 | 96 | 1015.9 |
| 20260509224749 | 21 | 269 | 0.0 | 0.0 | 0.00 | 0.64 | 0.64 | 96 | 1016.0 |
| 20260509224247 | 22 | 274 | 0.0 | 0.0 | 0.00 | 0.64 | 0.64 | 96 | 1016.0 |
| 20260509223744 | 22 | 274 | 0.0 | 0.0 | 0.00 | 0.64 | 0.64 | 96 | 1015.8 |
| 20260509223241 | 22 | 333 | 0.0 | 0.0 | 0.00 | 0.64 | 0.64 | 96 | 1016.0 |
| 20260509222737 | 22 | 272 | 0.0 | 0.0 | 0.00 | 0.64 | 0.64 | 96 | 1015.6 |
| 20260509222233 | 22 | 267 | 0.0 | 0.0 | 0.00 | 0.64 | 0.64 | 96 | 1015.9 |
| 20260509221728 | 22 | 277 | 0.0 | 0.0 | 0.00 | 0.64 | 0.64 | 96 | 1015.8 |
| 20260509221225 | 22 | 283 | 0.0 | 0.0 | 0.18 | 0.64 | 0.64 | 96 | 1015.8 |
| 20260509220721 | 22 | 280 | 0.0 | 0.0 | 0.36 | 0.64 | 0.64 | 96 | 1015.8 |
| 20260509220218 | 22 | 279 | 0.0 | 0.0 | 0.18 | 0.61 | 0.61 | 96 | 1015.9 |
| 20260509215713 | 22 | 282 | 0.0 | 0.0 | 0.00 | 0.58 | 0.58 | 96 | 1015.7 |
| 20260509215210 | 22 | 276 | 0.0 | 0.0 | 0.00 | 0.58 | 0.58 | 96 | 1015.6 |
| 20260509214707 | 22 | 269 | 0.0 | 0.0 | 0.00 | 0.58 | 0.58 | 96 | 1015.8 |
| 20260509214204 | 22 | 276 | 0.0 | 0.0 | 0.00 | 0.58 | 0.58 | 96 | 1015.6 |
| 20260509213701 | 22 | 267 | 0.0 | 0.0 | 0.00 | 0.58 | 0.58 | 95 | 1015.5 |
| 20260509213156 | 23 | 274 | 0.0 | 0.0 | 0.00 | 0.58 | 0.58 | 96 | 1015.7 |
| 20260509212654 | 23 | 273 | 0.0 | 0.0 | 0.00 | 0.58 | 0.58 | 96 | 1015.4 |
| 20260509212151 | 23 | 269 | 0.0 | 0.0 | 0.00 | 0.58 | 0.58 | 96 | 1015.5 |
| 20260509211647 | 23 | 268 | 0.0 | 0.0 | 0.00 | 0.58 | 0.58 | 96 | 1015.5 |
| 20260509211144 | 22 | 270 | 0.0 | 0.0 | 0.00 | 0.58 | 0.58 | 95 | 1015.5 |
| 20260509210641 | 22 | 268 | 0.0 | 0.0 | 0.00 | 0.58 | 0.58 | 95 | 1015.4 |
| 20260509210138 | 22 | 280 | 0.0 | 1.6 | 0.00 | 0.58 | 0.58 | 95 | 1015.5 |
| 20260509205632 | 23 | 266 | 0.0 | 0.0 | 0.00 | 0.58 | 0.58 | 95 | 1015.4 |
| 20260509205126 | 23 | 270 | 0.0 | 1.6 | 0.00 | 0.58 | 0.58 | 96 | 1015.5 |
| 20260509204617 | 23 | 270 | 0.0 | 0.0 | 0.00 | 0.58 | 0.58 | 95 | 1015.4 |
| 20260509204114 | 23 | 267 | 0.0 | 0.0 | 0.00 | 0.58 | 0.58 | 94 | 1015.4 |
| 20260509203610 | 23 | 276 | 0.0 | 0.0 | 0.00 | 0.58 | 0.58 | 94 | 1015.1 |
| 20260509203109 | 23 | 274 | 0.0 | 0.0 | 0.00 | 0.58 | 0.58 | 94 | 1015.5 |
| 20260509202603 | 23 | 286 | 0.0 | 0.0 | 0.00 | 0.58 | 0.58 | 94 | 1015.2 |
| 20260509202058 | 23 | 274 | 0.0 | 0.0 | 0.30 | 0.58 | 0.58 | 95 | 1015.2 |
| 20260509201553 | 23 | 273 | 0.0 | 0.0 | 0.30 | 0.58 | 0.58 | 94 | 1015.3 |
| 20260509201051 | 23 | 271 | 0.0 | 0.0 | 0.00 | 0.53 | 0.53 | 94 | 1015.4 |
| 20260509200550 | 23 | 286 | 0.0 | 0.0 | 0.00 | 0.53 | 0.53 | 94 | 1015.3 |
| 20260509200047 | 23 | 290 | 0.0 | 1.6 | 0.00 | 0.53 | 0.53 | 94 | 1015.1 |
| 20260509195543 | 23 | 267 | 0.0 | 0.0 | 0.00 | 0.53 | 0.53 | 95 | 1015.2 |
| 20260509195038 | 23 | 333 | 0.0 | 0.0 | 0.13 | 0.53 | 0.53 | 95 | 1015.3 |
| 20260509194532 | 23 | 289 | 0.0 | 0.0 | 1.50 | 0.53 | 0.53 | 95 | 1015.3 |
| 20260509194025 | 23 | 252 | 1.6 | 3.2 | 2.29 | 0.48 | 0.48 | 95 | 1015.3 |
| 20260509193525 | 23 | 296 | 0.0 | 0.0 | 0.30 | 0.15 | 0.15 | 94 | 1015.9 |
| 20260509193022 | 23 | 267 | 0.0 | 0.0 | 0.00 | 0.10 | 0.10 | 94 | 1015.4 |
| 20260509192518 | 24 | 269 | 0.0 | 0.0 | 0.00 | 0.10 | 0.10 | 94 | 1015.4 |
| 20260509192013 | 24 | 266 | 0.0 | 0.0 | 0.00 | 0.10 | 0.10 | 93 | 1015.5 |
| 20260509191508 | 24 | 280 | 0.0 | 0.0 | 0.00 | 0.10 | 0.10 | 93 | 1015.5 |
| 20260509191004 | 24 | 281 | 0.0 | 0.0 | 0.00 | 0.10 | 0.10 | 93 | 1015.4 |
| 20260509190501 | 25 | 284 | 0.0 | 0.0 | 0.13 | 0.10 | 0.10 | 92 | 1015.2 |
| 20260509185959 | 25 | 275 | 0.0 | 0.0 | 0.30 | 0.10 | 0.10 | 92 | 1015.4 |
| 20260509185456 | 25 | 327 | 0.0 | 0.0 | 0.30 | 0.08 | 0.08 | 91 | 1015.2 |
| 20260509184952 | 25 | 266 | 0.0 | 0.0 | 0.13 | 0.05 | 0.05 | 89 | 1015.1 |
| 20260509184450 | 25 | 265 | 0.0 | 0.0 | 0.00 | 0.03 | 0.03 | 86 | 1015.3 |
| 20260509183946 | 26 | 266 | 0.0 | 0.0 | 0.00 | 0.03 | 0.03 | 83 | 1015.3 |
| 20260509183441 | 26 | 272 | 3.2 | 3.2 | 0.00 | 0.03 | 0.03 | 80 | 1015.5 |
| 20260509182938 | 26 | 262 | 0.0 | 0.0 | 0.00 | 0.03 | 0.03 | 79 | 1015.4 |
| 20260509182434 | 26 | 266 | 0.0 | 0.0 | 0.00 | 0.03 | 0.03 | 78 | 1015.5 |
| 20260509181931 | 26 | 261 | 0.0 | 1.6 | 0.00 | 0.03 | 0.03 | 78 | 1015.5 |
| 20260509181430 | 26 | 268 | 1.6 | 1.6 | 0.00 | 0.03 | 0.03 | 78 | 1015.7 |
| 20260509180926 | 26 | 262 | 0.0 | 1.6 | 0.00 | 0.03 | 0.03 | 77 | 1015.6 |
| 20260509180421 | 26 | 294 | 1.6 | 1.6 | 0.00 | 0.03 | 0.03 | 78 | 1015.5 |
| 20260509175919 | 26 | 262 | 1.6 | 1.6 | 0.00 | 0.03 | 0.03 | 77 | 1015.7 |
| 20260509175415 | 26 | 279 | 0.0 | 0.0 | 0.00 | 0.03 | 0.03 | 79 | 1015.7 |
| 20260509174911 | 26 | 277 | 1.6 | 3.2 | 0.00 | 0.03 | 0.03 | 77 | 1015.8 |
| 20260509174408 | 26 | 280 | 6.4 | 8.0 | 0.00 | 0.03 | 0.03 | 76 | 1015.7 |
| 20260509173903 | 26 | 265 | 0.0 | 1.6 | 0.00 | 0.03 | 0.03 | 75 | 1015.8 |
| 20260509173358 | 26 | 240 | 3.2 | 3.2 | 0.00 | 0.03 | 0.03 | 75 | 1015.8 |
| 20260509172854 | 26 | 311 | 1.6 | 1.6 | 0.00 | 0.03 | 0.03 | 76 | 1015.7 |
| 20260509172351 | 26 | 253 | 4.8 | 4.8 | 0.00 | 0.03 | 0.03 | 75 | 1015.6 |
| 20260509171847 | 27 | 278 | 3.2 | 3.2 | 0.00 | 0.03 | 0.03 | 75 | 1015.9 |
| 20260509171337 | 27 | 262 | 1.6 | 3.2 | 0.00 | 0.03 | 0.03 | 77 | 1015.9 |
| 20260509170834 | 26 | 247 | 3.2 | 3.2 | 0.00 | 0.03 | 0.03 | 77 | 1015.8 |
| 20260509170330 | 26 | 255 | 1.6 | 1.6 | 0.00 | 0.03 | 0.03 | 77 | 1015.8 |
| 20260509165830 | 26 | 263 | 1.6 | 1.6 | 0.00 | 0.03 | 0.03 | 78 | 1015.7 |
| 20260509165325 | 26 | 264 | 0.0 | 0.0 | 0.00 | 0.03 | 0.03 | 78 | 1015.6 |
| 20260509164821 | 26 | 265 | 1.6 | 1.6 | 0.00 | 0.03 | 0.03 | 79 | 1015.8 |
| 20260509164317 | 26 | 247 | 1.6 | 1.6 | 0.00 | 0.03 | 0.03 | 78 | 1016.0 |
| 20260509163814 | 26 | 273 | 0.0 | 0.0 | 0.00 | 0.03 | 0.03 | 79 | 1015.9 |
| 20260509163310 | 26 | 281 | 0.0 | 1.6 | 0.00 | 0.03 | 0.03 | 81 | 1015.8 |
| 20260509162809 | 26 | 270 | 1.6 | 1.6 | 0.00 | 0.03 | 0.03 | 81 | 1016.2 |
| 20260509162306 | 26 | 286 | 1.6 | 1.6 | 0.00 | 0.03 | 0.03 | 81 | 1016.3 |
| 20260509161759 | 25 | 283 | 0.0 | 0.0 | 0.00 | 0.03 | 0.03 | 81 | 1015.9 |
| 20260509161255 | 25 | 281 | 0.0 | 0.0 | 0.00 | 0.03 | 0.03 | 83 | 1015.9 |
| 20260509160751 | 25 | 274 | 0.0 | 0.0 | 0.00 | 0.03 | 0.03 | 82 | 1016.1 |
| 20260509160247 | 25 | 274 | 0.0 | 0.0 | 0.00 | 0.03 | 0.03 | 83 | 1016.0 |
| 20260509155742 | 25 | 276 | 0.0 | 0.0 | 0.00 | 0.03 | 0.03 | 82 | 1016.3 |
| 20260509155239 | 25 | 275 | 3.2 | 3.2 | 0.00 | 0.03 | 0.03 | 82 | 1016.2 |
| 20260509154735 | 25 | 276 | 0.0 | 0.0 | 0.00 | 0.03 | 0.03 | 83 | 1016.1 |
| 20260509154232 | 25 | 260 | 0.0 | 0.0 | 0.00 | 0.03 | 0.03 | 83 | 1016.1 |
| 20260509153730 | 25 | 265 | 0.0 | 1.6 | 0.00 | 0.03 | 0.03 | 82 | 1016.1 |
| 20260509153225 | 25 | 316 | 1.6 | 1.6 | 0.00 | 0.03 | 0.03 | 83 | 1016.1 |
| 20260509152722 | 25 | 327 | 0.0 | 0.0 | 0.00 | 0.03 | 0.03 | 84 | 1016.0 |
| 20260509152219 | 25 | 270 | 0.0 | 0.0 | 0.00 | 0.03 | 0.03 | 86 | 1015.9 |
| 20260509151716 | 24 | 269 | 0.0 | 0.0 | 0.00 | 0.03 | 0.03 | 86 | 1016.1 |
| 20260509151213 | 24 | 277 | 0.0 | 0.0 | 0.00 | 0.03 | 0.03 | 85 | 1016.0 |
| 20260509150710 | 24 | 290 | 0.0 | 0.0 | 0.00 | 0.03 | 0.03 | 87 | 1016.0 |
| 20260509150209 | 25 | 302 | 0.0 | 0.0 | 0.00 | 0.03 | 0.03 | 84 | 1016.2 |
| 20260509145704 | 25 | 296 | 0.0 | 0.0 | 0.00 | 0.03 | 0.03 | 84 | 1016.2 |
| 20260509145159 | 25 | 292 | 1.6 | 3.2 | 0.00 | 0.03 | 0.03 | 83 | 1016.4 |
| 20260509144650 | 25 | 292 | 0.0 | 1.6 | 0.00 | 0.03 | 0.03 | 84 | 1016.5 |
| 20260509144148 | 25 | 266 | 0.0 | 0.0 | 0.00 | 0.03 | 0.03 | 84 | 1016.1 |
| 20260509143645 | 25 | 251 | 1.6 | 1.6 | 0.00 | 0.03 | 0.03 | 84 | 1016.3 |
| 20260509143142 | 24 | 276 | 1.6 | 3.2 | 0.00 | 0.03 | 0.03 | 84 | 1016.1 |
| 20260509142638 | 24 | 290 | 1.6 | 1.6 | 0.00 | 0.03 | 0.03 | 85 | 1016.2 |
| 20260509142135 | 24 | 265 | 0.0 | 0.0 | 0.00 | 0.03 | 0.03 | 86 | 1016.1 |
| 20260509141630 | 24 | 326 | 3.2 | 3.2 | 0.00 | 0.03 | 0.03 | 85 | 1016.0 |
| 20260509141126 | 24 | 265 | 0.0 | 0.0 | 0.00 | 0.03 | 0.03 | 87 | 1016.0 |
| 20260509140624 | 23 | 333 | 1.6 | 1.6 | 0.00 | 0.03 | 0.03 | 87 | 1016.1 |
| 20260509140121 | 23 | 292 | 1.6 | 1.6 | 0.00 | 0.03 | 0.03 | 88 | 1016.1 |
| 20260509135618 | 23 | 261 | 3.2 | 3.2 | 0.00 | 0.03 | 0.03 | 89 | 1016.3 |
| 20260509135117 | 23 | 292 | 1.6 | 3.2 | 0.00 | 0.03 | 0.03 | 89 | 1016.3 |
| 20260509134613 | 23 | 274 | 0.0 | 0.0 | 0.00 | 0.03 | 0.03 | 89 | 1016.2 |
| 20260509134110 | 23 | 286 | 1.6 | 1.6 | 0.00 | 0.03 | 0.03 | 89 | 1016.2 |
| 20260509133607 | 23 | 286 | 1.6 | 1.6 | 0.00 | 0.03 | 0.03 | 89 | 1016.1 |
| 20260509133105 | 23 | 324 | 1.6 | 1.6 | 0.00 | 0.03 | 0.03 | 89 | 1016.1 |
| 20260509132603 | 23 | 303 | 0.0 | 1.6 | 0.00 | 0.03 | 0.03 | 90 | 1015.8 |
| 20260509132101 | 23 | 288 | 0.0 | 1.6 | 0.00 | 0.03 | 0.03 | 89 | 1015.6 |
| 20260509131551 | 23 | 273 | 0.0 | 1.6 | 0.00 | 0.03 | 0.03 | 89 | 1015.3 |
| 20260509131048 | 23 | 267 | 1.6 | 1.6 | 0.00 | 0.03 | 0.03 | 89 | 1015.7 |
| 20260509130544 | 23 | 268 | 1.6 | 1.6 | 0.00 | 0.03 | 0.03 | 89 | 1015.6 |
| 20260509130041 | 23 | 271 | 0.0 | 0.0 | 0.00 | 0.03 | 0.03 | 90 | 1015.6 |
| 20260509125537 | 23 | 273 | 0.0 | 0.0 | 0.00 | 0.03 | 0.03 | 90 | 1015.6 |
| 20260509125034 | 22 | 270 | 0.0 | 0.0 | 0.00 | 0.03 | 0.03 | 91 | 1015.3 |
| 20260509124530 | 22 | 269 | 0.0 | 0.0 | 0.00 | 0.03 | 0.03 | 91 | 1015.5 |
| 20260509124028 | 22 | 254 | 3.2 | 3.2 | 0.00 | 0.03 | 0.03 | 91 | 1015.3 |
| 20260509123526 | 22 | 275 | 0.0 | 0.0 | 0.00 | 0.03 | 0.03 | 92 | 1015.1 |